Flag for U.S.A. Weather past 2 weeks in Portland, Maine, U.S.A.

Now
64 °F

Light rain. Fog.


Feels Like: 64 °F
Forecast: 52 / 67 °F
Wind: 6 mph from Southwest

Location: Portland - Portland International Jetport

Current Time: Sep 22, 2014 at 6:35:02 AM

Latest Report: Sep 22, 2014 at 5:51 AM


Visibility: 6 mi

Pressure: 29.51 "Hg

Humidity: 97%

Dew point: 63 °F

Location of PortlandLocation

Historic Weather in Portland — Graph

°F

Portland temperature yesterday

Maximum temperature yesterday: 70 °F (at 2:01 PM)
Minimum temperature yesterday: 54 °F (at 4:51 AM)
Average temperature yesterday: 63 °F

Past Weeks' High & Low Weather Summary

 TemperatureHumidityPressure
High75 °F (Sep 7, 3:51 PM)100% (Sep 21, 7:51 PM)30.42 "Hg (Sep 21, 7:51 PM)
Low36 °F (Sep 20, 12:51 AM)33% (Sep 19, 1:51 PM)29.49 "Hg (Sep 22, 3:51 AM)
Average57 °F77%30.11 "Hg
* Reported Sep 7 4:51 AM — Sep 22 4:51 AM, Portland, Weather by CustomWeather, © 2014

Note: Actual official high and low records may vary slightly from our data, if they occured in-between our weather recording intervals... More about our weather records

Advertising

Portland weather history for previous 24 hours

 ConditionsComfort  
Time TempWeatherWind HumidityBarometerVisibility
4:51 AM
Sep 22
63 °FFog.5 mph97%29.49 "Hg0 mi
3:51 AM63 °FFog.No wind97%29.49 "Hg1 mi
2:51 AM63 °FFog.5 mph97%29.49 "Hg0 mi
1:51 AM63 °FFog.3 mph97%29.51 "Hg0 mi
12:51 AM63 °FFog.No wind97%29.53 "Hg1 mi
11:51 PM
Sep 21
63 °FFog.No wind97%29.55 "Hg1 mi
10:51 PM63 °FFog.No wind97%29.58 "Hg1 mi
9:51 PM63 °FFog.3 mph97%29.61 "Hg0 mi
8:51 PM63 °FFog.3 mph97%29.64 "Hg0 mi
7:51 PM63 °FFog.7 mph100%29.66 "Hg0 mi
6:51 PM64 °FFog.8 mph97%29.68 "Hg0 mi
5:51 PM64 °FFog.6 mph97%29.71 "Hg0 mi
4:51 PM65 °FFog.7 mph97%29.73 "Hg1 mi
3:51 PM66 °FFog.6 mph93%29.75 "Hg3 mi
2:51 PM68 °FLow clouds.8 mph87%29.78 "Hg8 mi
2:01 PM70 °FPartly sunny.14 mph79%29.80 "Hg10 mi
1:03 PM69 °FPassing clouds.17 mph81%29.84 "Hg10 mi
12:51 PM69 °FPartly sunny.17 mph84%29.85 "Hg10 mi
11:51 AM65 °FFog.7 mph94%29.89 "Hg5 mi
10:51 AM64 °FFog.7 mph94%29.91 "Hg6 mi
9:51 AM64 °FMostly cloudy.10 mph90%29.93 "Hg8 mi
8:51 AM61 °FLight rain. Fog.6 mph97%29.94 "Hg1 mi
8:02 AM61 °FLight rain. Fog.6 mph93%29.95 "Hg1 mi
7:51 AM61 °FHeavy rain. Fog.No wind93%29.95 "Hg1 mi
6:51 AM59 °FOvercast.6 mph93%29.96 "Hg7 mi
Weather by CustomWeather, © 2014

See weather overviewHow to use our weather pages